[[{"header":{"parameterUnit":"m.s-1","parameterCategory":1,"la1":30.2991,"la2":30.254,"lo1":-89.0895,"lo2":-89.0444,"dy":0.0017,"dx":0.0017,"nx":28,"ny":28,"refTime":"2025-04-05T09:00:00:Z","depth":0,"parameterNumber":2,"parameterNumberName":"U-component_of_WINDS"},"data":[0,0,0,0,0,0,0,0,0,0,0,0,0,0,0,0,0,0,0,0,0,0,0,0,0,0,0,0,0,0,0,0,0,0,0,0,0,0,0,0,0,0,0,0,0,0,0,0,0,0,0,0,0,0,0,0,0,0,-5.2109,-5.211,0,-5.2241,-5.2242,-5.2244,-5.226,-5.2259,-5.2258,-5.2256,-5.239,-5.2394,-5.2399,0,0,0,0,0,0,0,0,0,0,0,0,0,-5.1869,-5.1874,-5.2109,-5.211,-5.2112,-5.2241,-5.2243,-5.2244,-5.226,-5.2259,-5.2257,-5.2256,-5.2388,-5.2394,-5.24,0,0,0,0,0,0,0,0,0,0,0,0,0,-5.1985,-5.1875,-5.2108,-5.2136,-5.2139,-5.224,-5.2243,-5.2245,-5.2261,-5.2259,-5.2257,-5.2255,-5.2386,-5.2393,-5.24,-5.2483,0,0,-5.2422,-5.2425,0,0,0,0,0,0,0,0,-5.1978,-5.1993,-5.213,-5.2134,-5.2138,-5.2232,-5.2207,-5.2325,-5.2261,-5.2215,-5.2256,-5.2254,-5.2339,-5.235,-5.2379,-5.2489,-5.2495,-5.2423,-5.2427,-5.243,-5.2432,0,0,0,0,0,0,0,-5.197,-5.1988,-5.2161,-5.2132,-5.2137,-5.2141,-5.2155,-5.2229,-5.2286,-5.2219,-5.222,-5.2236,-5.2341,-5.2372,-5.2382,-5.2497,-5.2423,-5.2429,-5.2433,-5.2436,-5.2682,-5.2684,0,0,0,0,0,0,-5.1957,-5.1981,-5.2157,-5.2165,-5.2052,-5.2147,-5.2163,-5.2204,-5.2285,-5.2296,-5.2237,-5.2236,-5.2361,-5.2374,-5.2387,-5.2488,-5.243,-5.2437,-5.2441,-5.2679,-5.2682,-5.2685,0,0,0,0,0,0,-5.1952,-5.1973,-5.2151,-5.2074,-5.2097,-5.2153,-5.2199,-5.2208,-5.2239,-5.2299,-5.2309,-5.2258,-5.236,-5.2377,-5.2459,-5.2493,-5.244,-5.2446,-5.2677,-5.268,-5.2683,-5.2691,0,0,0,0,0,0,-5.1945,-5.1971,-5.2003,-5.2074,-5.2101,-5.2222,-5.2201,-5.2212,-5.2251,-5.2251,-5.2322,-5.2332,-5.2359,-5.2448,-5.2466,-5.2501,-5.2452,-5.2674,-5.2678,-5.2682,-5.2688,-5.2694,-5.27,0,0,0,0,0,-5.1936,-5.1999,-5.2004,-5.2025,-5.2142,-5.2223,-5.2239,-5.227,-5.2254,-5.2286,-5.2325,-5.2329,-5.2487,-5.2456,-5.2477,-5.2515,-5.2672,-5.2677,-5.2682,-5.2685,-5.2693,-5.2699,0,0,0,0,0,0,-5.1929,-5.2009,-5.2015,-5.2103,-5.2157,-5.2226,-5.2267,-5.2277,-5.2335,-5.2332,-5.2368,-5.2384,-5.2465,-5.2499,-5.2463,-5.2599,-5.2578,-5.2587,-5.2573,-5.2581,-5.2587,-5.2576,-5.2458,0,0,0,0,0,-5.1938,-5.1998,-5.2064,-5.2135,-5.2162,-5.221,-5.2247,-5.2267,-5.2323,-5.2346,-5.2391,-5.2445,-5.2507,-5.2546,-5.2606,-5.2694,-5.2709,-5.273,-5.2736,-5.2741,-5.2747,-5.2796,-5.2806,-5.2701,-5.2701,-5.2701,0,0,-5.1956,-5.2007,-5.2042,-5.2135,-5.2179,-5.224,-5.2229,-5.2294,-5.2339,-5.2355,-5.2435,-5.2471,-5.2534,-5.2619,-5.2659,-5.2649,-5.278,-5.2747,-5.275,-5.2755,-5.2802,-5.2812,-5.2821,-5.2705,-5.2704,-5.2703,0,0,-5.2019,-5.2065,-5.2129,-5.2173,-5.224,-5.2272,-5.2288,-5.2357,-5.2381,-5.2462,-5.2476,-5.2531,-5.2636,-5.268,-5.2717,-5.28,-5.2805,-5.2819,-5.2848,-5.2895,-5.2903,-5.291,-5.2938,-5.2948,-5.2826,-5.2826,-5.2826,0,-5.2033,-5.2126,-5.216,-5.2225,-5.2265,-5.2284,-5.2349,-5.239,-5.2473,-5.25,-5.2489,-5.2623,-5.2667,-5.2762,-5.2782,-5.2812,-5.283,-5.2809,-5.2899,-5.2907,-5.2914,-5.2941,-5.2952,-5.2827,-5.2827,-5.2827,-5.2827,0,-5.2139,-5.2203,-5.2247,-5.2327,-5.2372,-5.2437,-5.248,-5.2523,-5.2539,-5.2572,-5.2655,-5.2709,-5.278,-5.2805,-5.2822,-5.2903,-5.2896,-5.2892,-5.287,-5.2925,-5.2951,-5.2961,-5.2828,-5.2828,-5.2828,-5.2827,0,0,-5.2198,-5.2298,-5.2313,-5.235,-5.2426,-5.2476,-5.2542,-5.2613,-5.2647,-5.2705,-5.276,-5.285,-5.2848,-5.2889,-5.2911,-5.2953,-5.3013,-5.2944,-5.2946,-5.2953,-5.3106,-5.3106,-5.3118,-5.3019,-5.3021,-5.3023,-5.31,0,-5.2269,-5.2386,-5.242,-5.2519,-5.2578,-5.2598,-5.2656,-5.2708,-5.2742,-5.2797,-5.2835,-5.2897,-5.289,-5.2915,-5.2957,-5.2997,-5.3044,-5.2992,-5.3069,-5.3072,-5.305,-5.3132,-5.3132,-5.3202,-5.311,-5.3112,-5.3113,0,-5.2366,-5.2426,-5.2531,-5.26,-5.2626,-5.2677,-5.2745,-5.2798,-5.2858,-5.288,-5.2927,-5.2946,-5.3015,-5.2993,-5.3088,-5.3052,-5.3087,-5.3111,-5.3115,-5.3121,-5.3094,-5.3138,-5.3225,-5.3234,-5.313,-5.3129,-5.3128,0,-5.2397,-5.2504,-5.258,-5.2611,-5.2694,-5.273,-5.2766,-5.2825,-5.2865,-5.2925,-5.2952,-5.3019,-5.3054,-5.3106,-5.3142,-5.3123,-5.3234,-5.3215,-5.3253,-5.3252,-5.3273,-5.327,-5.3364,-5.3299,-5.3299,-5.3299,-5.3298,0,-5.2471,-5.2533,-5.2595,-5.2642,-5.2713,-5.2752,-5.2821,-5.2858,-5.2911,-5.2965,-5.2988,-5.3038,-5.3084,-5.3141,-5.317,-5.3244,-5.3261,-5.3279,-5.3286,-5.3276,-5.3273,-5.3296,-5.3292,-5.3301,-5.3301,-5.33,-5.33,0,-5.2515,-5.2559,-5.2644,-5.2716,-5.2736,-5.2785,-5.2847,-5.2893,-5.2929,-5.2997,-5.3015,-5.3071,-5.3138,-5.3181,-5.3267,-5.3287,-5.3367,-5.3374,-5.3347,-5.3349,-5.3384,-5.3379,-5.3494,-5.351,-5.3436,-5.3437,-5.3437,0,-5.2558,-5.2607,-5.2685,-5.2723,-5.276,-5.2821,-5.2863,-5.2904,-5.2947,-5.3021,-5.3058,-5.3128,-5.3185,-5.3293,-5.334,-5.3406,-5.3413,-5.3449,-5.3423,-5.3411,-5.3411,-5.3407,-5.3411,-5.3452,-5.3452,-5.3453,-5.3453,0,-5.2629,-5.2649,-5.2708,-5.2776,-5.2826,-5.2881,-5.2936,-5.2966,-5.3017,-5.3063,-5.3133,-5.3178,-5.3267,-5.3335,-5.3406,-5.3443,-5.3456,-5.3462,-5.3474,-5.3462,-5.3444,-5.3453,-5.3356,-5.3458,-5.3457,-5.3457,-5.3457,-5.3457,-5.2673,-5.2717,-5.2779,-5.2845,-5.2891,-5.2943,-5.2989,-5.3032,-5.3091,-5.3166,-5.3187,-5.326,-5.3321,-5.3417,-5.3456,-5.3514,-5.3509,-5.3526,-5.3531,-5.3534,-5.3533,-5.3437,-5.3527,-5.3527,-5.3527,-5.3527,-5.3527,0,-5.2743,-5.2785,-5.2845,-5.2922,-5.2974,-5.2984,-5.3046,-5.3088,-5.3152,-5.3208,-5.3265,-5.3345,-5.3412,-5.3466,-5.3535,-5.3571,-5.3579,-5.3587,-5.3584,-5.3592,-5.3535,-5.3516,-5.358,-5.358,-5.358,-5.358,-5.358,-5.358,-5.2786,-5.2861,-5.2889,-5.2987,-5.3028,-5.31,-5.3134,-5.3182,-5.3227,-5.3316,-5.3372,-5.3407,-5.3462,-5.3536,-5.3598,-5.3612,-5.3635,-5.3642,-5.3657,-5.3602,-5.3596,-5.359,-5.3573,-5.3648,-5.3648,-5.371,-5.371,-5.3711]},{"header":{"parameterUnit":"m.s-1","parameterCategory":1,"la1":30.2991,"la2":30.254,"lo1":-89.0895,"lo2":-89.0444,"dy":0.0017,"dx":0.0017,"nx":28,"ny":28,"refTime":"2025-04-05T09:00:00:Z","depth":0,"parameterNumber":3,"parameterNumberName":"V-component_of_WINDS"},"data":[0,0,0,0,0,0,0,0,0,0,0,0,0,0,0,0,0,0,0,0,0,0,0,0,0,0,0,0,0,0,0,0,0,0,0,0,0,0,0,0,0,0,0,0,0,0,0,0,0,0,0,0,0,0,0,0,0,0,5.0736,5.0737,0,5.0859,5.0861,5.0862,5.0861,5.086,5.0858,5.0857,5.098,5.0985,5.099,0,0,0,0,0,0,0,0,0,0,0,0,0,5.05,5.0504,5.0736,5.0738,5.0739,5.0859,5.0861,5.0862,5.0862,5.086,5.0858,5.0856,5.0979,5.0984,5.099,0,0,0,0,0,0,0,0,0,0,0,0,0,5.0611,5.0506,5.0736,5.0753,5.0756,5.0859,5.0861,5.0863,5.0862,5.086,5.0857,5.0855,5.0977,5.0984,5.0991,5.1084,0,0,5.1013,5.1016,0,0,0,0,0,0,0,0,5.0604,5.0619,5.0749,5.0752,5.0755,5.0843,5.0823,5.0937,5.0863,5.0822,5.0856,5.0854,5.0936,5.0946,5.0975,5.1089,5.1095,5.1013,5.1018,5.1021,5.1023,0,0,0,0,0,0,0,5.0597,5.0614,5.0785,5.0751,5.0755,5.0755,5.0768,5.0844,5.0891,5.0825,5.0825,5.084,5.0937,5.0968,5.0978,5.1096,5.1013,5.102,5.1024,5.1027,5.1297,5.1299,0,0,0,0,0,0,5.0586,5.0608,5.0781,5.0788,5.0673,5.0761,5.0776,5.0817,5.089,5.0899,5.0842,5.084,5.0957,5.0969,5.0982,5.1098,5.1021,5.1027,5.1032,5.1294,5.1297,5.13,0,0,0,0,0,0,5.0581,5.0601,5.0776,5.0698,5.0721,5.0768,5.0814,5.0821,5.0851,5.0903,5.0911,5.0865,5.0955,5.0972,5.1059,5.1102,5.1031,5.1037,5.129,5.1295,5.1299,5.1328,0,0,0,0,0,0,5.0574,5.0599,5.0635,5.0699,5.0725,5.0851,5.0817,5.0825,5.0864,5.0862,5.0926,5.0935,5.0955,5.1049,5.1066,5.1111,5.1043,5.1287,5.1292,5.1297,5.1324,5.1333,5.1341,0,0,0,0,0,5.0565,5.0637,5.0637,5.0657,5.077,5.0853,5.0868,5.0891,5.0867,5.0904,5.0938,5.0933,5.1094,5.1057,5.1078,5.1125,5.1284,5.1291,5.1297,5.132,5.1331,5.1341,0,0,0,0,0,0,5.0575,5.0646,5.0646,5.074,5.0791,5.0853,5.09,5.0901,5.0959,5.0954,5.0979,5.0994,5.1082,5.1112,5.1069,5.122,5.1186,5.1197,5.1197,5.1208,5.1217,5.1208,5.1049,0,0,0,0,0,5.0588,5.065,5.0709,5.0786,5.0812,5.0852,5.0889,5.0902,5.0955,5.0976,5.1016,5.1067,5.113,5.1171,5.1231,5.1328,5.1343,5.1371,5.1379,5.1386,5.1395,5.1452,5.1465,5.1321,5.1321,5.1321,0,0,5.0616,5.0662,5.07,5.079,5.083,5.0895,5.087,5.0938,5.0986,5.0986,5.1072,5.1103,5.1162,5.1256,5.1299,5.1284,5.1439,5.1394,5.1399,5.1405,5.146,5.1473,5.1485,5.1326,5.1325,5.1324,0,0,5.07,5.074,5.0811,5.0853,5.0916,5.0943,5.096,5.1022,5.1044,5.1131,5.1133,5.119,5.1297,5.134,5.1376,5.1479,5.1478,5.1498,5.1544,5.1598,5.161,5.162,5.1659,5.1672,5.1507,5.1507,5.1507,0,5.0726,5.0823,5.0847,5.0917,5.0957,5.0962,5.1035,5.1074,5.1153,5.1181,5.1163,5.13,5.1339,5.1444,5.147,5.1498,5.1519,5.1491,5.1606,5.1617,5.1627,5.1664,5.1678,5.1509,5.1509,5.1509,5.1509,0,5.0854,5.0921,5.0971,5.1049,5.1095,5.1165,5.1201,5.1244,5.1254,5.1283,5.1372,5.1421,5.1492,5.1518,5.1527,5.1625,5.1614,5.1601,5.1568,5.1642,5.1678,5.1692,5.1513,5.1512,5.1511,5.1511,0,0,5.0945,5.1038,5.1056,5.1093,5.1164,5.1217,5.1288,5.136,5.1398,5.1453,5.1514,5.1606,5.1596,5.1636,5.1651,5.1698,5.178,5.168,5.1682,5.1698,5.1894,5.1904,5.192,5.178,5.1783,5.1785,5.189,0,5.1038,5.1166,5.1191,5.1303,5.1367,5.1374,5.1437,5.1487,5.1516,5.1575,5.1607,5.1672,5.1652,5.1677,5.1725,5.176,5.182,5.1753,5.1838,5.1841,5.1824,5.1939,5.1949,5.2046,5.1903,5.1906,5.1907,0,5.1163,5.1223,5.1342,5.1407,5.1435,5.1491,5.156,5.1616,5.1674,5.1692,5.1739,5.1749,5.1825,5.1788,5.1894,5.1848,5.1884,5.1907,5.1911,5.1921,5.1879,5.1953,5.2077,5.2092,5.1929,5.1927,5.1926,0,5.1221,5.1331,5.1417,5.1448,5.1526,5.1566,5.16,5.1656,5.1698,5.1759,5.1787,5.1854,5.1892,5.1944,5.1972,5.1943,5.2077,5.2042,5.2095,5.2094,5.2123,5.2121,5.2256,5.2144,5.2144,5.2143,5.2143,0,5.1322,5.1395,5.1445,5.1497,5.158,5.1608,5.1689,5.1722,5.1773,5.1833,5.1842,5.1898,5.1932,5.1993,5.2016,5.2101,5.2117,5.2135,5.214,5.2135,5.2133,5.2159,5.2154,5.2147,5.2147,5.2146,5.2145,0,5.14,5.1436,5.1531,5.1598,5.1617,5.1675,5.1732,5.1784,5.1814,5.189,5.191,5.1957,5.203,5.2064,5.2153,5.2168,5.2266,5.2266,5.2247,5.2249,5.23,5.2296,5.2459,5.2482,5.2353,5.2354,5.2355,0,5.1463,5.152,5.1594,5.1636,5.1671,5.1738,5.1782,5.1812,5.1858,5.1931,5.1974,5.2048,5.2109,5.2225,5.2267,5.2336,5.2339,5.2391,5.2349,5.2343,5.2342,5.2339,5.2346,5.2399,5.24,5.2401,5.2402,0,5.1572,5.1588,5.1651,5.1723,5.1775,5.1832,5.1888,5.1921,5.1961,5.2012,5.2087,5.2135,5.2228,5.2301,5.2374,5.2409,5.2413,5.2415,5.2431,5.2427,5.2415,5.2424,5.2269,5.2411,5.241,5.241,5.2409,5.2409,5.1646,5.1698,5.1759,5.183,5.1876,5.1929,5.1982,5.202,5.2083,5.2163,5.2176,5.2258,5.2317,5.2415,5.2453,5.2517,5.2505,5.2528,5.2534,5.254,5.2544,5.2404,5.253,5.253,5.253,5.253,5.253,0,5.1757,5.1798,5.1863,5.1942,5.1999,5.1998,5.2061,5.2108,5.218,5.2235,5.2295,5.2384,5.2456,5.2504,5.2578,5.262,5.2624,5.2638,5.2636,5.2645,5.2549,5.2529,5.2634,5.2634,5.2634,5.2634,5.2634,5.2634,5.1822,5.191,5.1934,5.2045,5.2085,5.2166,5.2202,5.2251,5.2296,5.2394,5.2455,5.2486,5.254,5.2618,5.2684,5.2697,5.2724,5.274,5.2752,5.2662,5.2651,5.2641,5.2622,5.2745,5.2745,5.2842,5.2843,5.2844]}]]